Cloud_Cover
100 100 63 37 9 17 99 100 100 100 100 100 100 100 100 100 100 100 100 100 100 100 100 100 100 100 100 100 89 89 5 0 0 0 0 0 0 0 0 38 66 1 6 0 0 0 95
100 100 95 66 76 76 90 100 100 100 100 100 100 100 100 100 100 100 100 100 100 100 100 100 100 100 100 100 49 100 21 2 0 0 0 0 0 0 0 0 76 30 98 3 1 0 2
100 100 100 81 46 75 89 100 100 100 100 100 100 100 100 100 100 100 100 100 100 100 100 100 100 100 100 82 15 100 99 5 0 0 0 0 0 0 0 0 5 0 36 8 2 0 0
100 100 100 95 65 89 100 83 100 100 81 100 100 100 100 100 100 100 100 100 100 100 100 100 100 99 100 99 25 100 100 65 3 0 0 0 0 0 0 0 0 0 0 0 0 0 0
100 100 100 100 100 85 100 88 60 100 100 100 100 100 100 100 100 100 100 100 100 100 100 100 40 100 100 100 32 100 100 100 3 5 0 0 0 0 0 0 0 0 0 0 0 0 0
100 100 100 100 100 100 94 100 96 85 100 100 100 100 100 100 100 100 100 100 100 100 100 100 44 96 100 99 84 100 100 100 88 2 4 0 0 0 0 0 0 0 0 0 0 0 0
100 100 100 100 100 100 100 89 100 83 100 100 100 100 100 100 100 100 100 100 100 100 100 100 100 100 100 88 64 100 100 100 100 9 5 0 0 0 0 0 0 0 0 0 0 0 0
100 100 100 100 100 100 100 94 32 63 100 100 100 100 100 100 100 100 100 100 100 100 100 100 72 81 100 100 100 100 100 100 100 32 5 5 0 0 0 0 0 0 0 0 0 0 1
100 100 100 100 100 100 99 97 49 24 70 85 100 100 100 100 100 100 100 100 100 100 100 92 98 94 100 100 100 100 71 100 100 100 5 7 5 4 0 0 0 3 0 1 0 0 0
94 100 100 100 100 100 98 90 100 71 99 50 42 100 100 100 100 100 100 100 100 100 100 98 100 100 100 100 100 100 100 100 100 100 5 32 5 5 5 5 2 0 3 3 2 0 0
30 100 100 100 100 100 100 100 100 100 99 12 55 94 100 100 100 100 100 100 100 100 100 80 95 100 100 100 100 100 100 100 100 100 42 6 59 5 5 5 4 5 5 2 0 3 0
35 100 100 100 100 100 100 100 100 98 37 53 93 77 100 100 100 100 100 100 100 100 99 100 100 100 100 100 100 100 100 100 100 100 99 5 66 74 18 5 5 5 5 5 5 3 4
25 100 100 100 100 99 100 100 43 100 100 96 92 78 100 100 100 100 100 100 100 100 100 100 100 100 100 100 100 100 100 100 100 100 100 5 7 100 83 11 5 5 5 5 5 5 3
67 100 100 100 100 100 100 100 62 100 100 69 23 5 98 100 100 100 100 100 100 100 100 100 100 100 100 100 100 100 100 100 100 100 100 98 6 52 100 75 5 5 5 5 5 5 5
100 100 100 100 100 100 100 99 100 100 100 100 37 77 15 100 100 100 100 100 100 100 100 100 100 100 100 100 100 100 100 100 100 100 100 100 30 10 100 100 65 11 18 5 5 5 5
96 100 100 100 100 100 100 100 100 100 100 100 99 8 72 69 98 100 100 100 100 100 100 100 100 100 100 100 100 100 100 100 100 100 100 100 100 34 100 100 100 51 26 38 26 5 6
98 100 100 100 100 100 100 100 100 100 100 100 93 69 23 5 95 100 100 100 100 100 100 100 100 100 100 100 100 100 100 100 100 100 100 100 100 84 100 100 100 100 100 95 72 10 30
100 100 100 100 100 100 100 100 100 100 100 100 100 97 5 47 31 100 100 100 100 100 100 100 100 100 100 100 100 100 100 100 100 100 100 100 100 100 97 87 100 100 100 95 98 5 9
100 100 86 100 100 100 100 100 100 100 100 100 100 96 77 18 53 100 100 100 100 100 100 100 100 100 100 100 100 100 100 100 100 100 100 100 100 100 100 100 100 100 100 99 100 42 5
100 100 100 100 100 100 100 100 100 100 100 100 94 100 86 40 20 100 100 100 100 100 100 100 100 100 100 100 100 100 100 100 100 100 100 100 100 100 100 100 100 100 100 100 61 100 41
100 100 100 100 100 100 100 100 100 100 100 93 100 89 24 100 6 100 100 100 100 100 100 100 100 100 100 100 100 100 100 100 100 100 100 100 100 100 96 94 100 100 100 100 86 100 96
100 100 100 100 100 100 100 100 100 100 100 100 47 18 100 100 81 100 100 100 100 100 100 100 100 100 100 100 100 100 100 100 100 100 100 100 100 100 100 100 100 100 100 82 100 96 61
94 100 100 100 100 100 100 100 100 100 100 48 94 99 99 100 100 94 100 100 100 100 100 100 100 100 100 100 100 100 100 100 100 100 100 100 100 100 100 100 100 100 100 92 78 93 73
81 100 100 100 100 100 100 100 100 100 100 96 82 91 100 100 95 77 100 100 100 100 100 100 100 100 100 100 100 100 100 100 100 100 100 100 100 100 100 100 100 100 100 100 19 40 100
100 100 100 100 100 100 100 100 100 100 100 100 69 96 100 100 87 63 100 100 100 100 100 100 100 100 100 100 100 100 100 100 100 100 100 100 100 100 100 100 100 100 100 100 91 95 100
100 100 100 100 100 100 100 100 100 100 98 100 100 100 100 100 67 100 100 100 100 100 100 100 100 100 100 100 100 100 100 100 100 100 100 100 100 100 100 100 100 100 100 100 100 100 100
100 100 100 100 100 100 100 100 100 100 100 100 100 100 100 100 100 100 100 100 100 100 100 100 100 100 100 100 100 100 100 100 100 100 100 100 100 100 100 100 100 100 100 100 100 100 100
100 100 100 100 100 100 100 100 100 100 100 100 100 100 100 100 100 100 100 100 100 100 100 100 100 100 100 100 100 100 100 100 100 100 100 100 100 100 100 100 100 100 100 100 100 100 100
100 100 100 100 100 100 100 100 100 100 100 100 100 100 100 100 100 100 100 100 100 100 100 100 100 100 100 100 100 100 100 100 100 100 100 100 100 100 100 100 100 100 100 100 100 100 91